Regional Weather Roundup
Issued by NWS

Home | Current Version | Previous Version | Text Only | Print | Product List | Glossary On
Versions: 1 2 3 4 5 6 7 8 9 10 11 12 13 14 15 16 17 18 19 20 21 22 23 24 25 26 27 28 29 30 31 32 33 34 35 36 37 38 39 40 41 42 43 44 45 46 47 48 49 50
000
ASCA42 TJSJ 072010
RWRPR
PUERTO RICO/U.S. VIRGIN ISLANDS HOURLY WEATHER ROUNDUP
NATIONAL WEATHER SERVICE SAN JUAN PR
400 PM AST TUE JUL 07 2015

PRZ001-004-072100-
PUERTO RICO

CITY           SKY/WX    TMP DP  RH WIND       PRES   REMARKS
SAN JUAN LMM   MOSUNNY   88  73  62 E17G25    30.06S HX  96
MAYAGUEZ       PTSUNNY   90  75  62 W9        30.07F HX 100
AGUADILLA      MOSUNNY   86  72  62 E28       30.06S HX  92
CEIBA          CLOUDY    88  73  62 NE14      30.07F HX  96
$$

PRZ006-007-072100-
U.S. VIRGIN ISLANDS

CITY           SKY/WX    TMP DP  RH WIND       PRES   REMARKS
CHARLOTTE AMA  MOSUNNY   90  70  51 E14G20    30.04S HX  95
CHRISTIANSTED  MOSUNNY   84  72  65 E17       30.04F
$$

HOURLY WEATHER ROUNDUP FOR THE NEWS MEDIA

CITY           SKY/WX    TMP DP  RH WIND       PRES   REMARKS
ORLANDO        CLOUDY    76  73  91 SE9       30.15S
NEW YORK       PTSUNNY   82  73  74 S18G24    29.98F
NEWARK         PTSUNNY   86  72  62 S9        29.94F HX  92
CHICAGO        PTSUNNY   67  47  48 NE16G23   30.04R
HARTFORD       PTSUNNY   82  72  71 S16G26    30.02F
BOSTON         PTSUNNY   82  70  66 S18       29.98F
DALLAS         CLOUDY    90  69  50 SW15G24   29.94F HX  94
PHILADELPHIA   PTSUNNY   90  68  48 SW14      29.97F HX  94
LOS ANGELES    PTSUNNY   70  62  76 W14       29.98F
WASHINGTON DC  MOSUNNY   87  67  51 SW10      30.01F HX  90



USA.gov is the U.S. government's official web portal to all federal, state and local government web resources and services.